THORAD AGENA D DEB, 5024

Orbit data source: Space-Track

THORAD AGENA D DEB, 5024 is space debris in SSO originally from a launch on Wed, 08 Apr 1970 UTC launched from the Air Force Western Test Range (AFWTR). Debris objects in space refer to the collection of defunct objects orbiting the Earth. Examples of debris include non-operational satellites, rocket bodies, and fragments generated from explosions, collisions, or faulty payload assembly.

Loading next visibility...
Identifier
5024, 1970-025HY
Orbit
SSO
Country
Flag of USUS
Related business
Manufacturer
Unknown
Mission
Spacecraft
Bus & Motor
Unknown
Mass
Unknown
Launch date (UTC)
1970-04-08 (56 years ago)
Launch vehicle
Unknown
Launch site
Air Force Western Test Range (AFWTR)
Object type
Payload
Rocket body
Debris
Shape & HBR
Unknown shape, 0.1 m
Radar Cross Section
Small (<0.1 m²)

Expand to show TLE details & history
Last TLE update: 17 hours ago

TLE from 17 hours ago
0 THORAD AGENA D DEB
1 05024U 70025HY  26034.83679145  .00001665  00000-0  70829-3 0  9990
2 05024  99.8113 345.5269 0083544 141.5574 219.1594 14.24965750853010
Epoch: 2026-02-03T20:04Z
TLE epoch observation values (Epoch: 2026-02-03T20:04:58.781Z)
Latitude
0.00001°
Longitude
-89.73003°
Altitude
858.255 km
Speed
7.399 km/s
True Right ascension
23h 02m 06s
True Declination
0° 00' 00"
Sunlit
Object was in daylight at epoch
Visualization orbit readout
Latitude
Unknown
Longitude
Unknown
Altitude
Unknown
Speed
Unknown
Apparent Right ascension
Unknown
Apparent Declination
Unknown
Sunlit
N/A
Visualization observer readout
Local Sidereal Time
15:09:59
Azimuth
Unknown
Elevation
Unknown
Doppler factor
Unknown
Orbital elements
Apogee altitude
865.833 km
Perigee altitude
745.798 km
Semi-major axis
7,183.953 km
Eccentricity
0.00835
Inclination
99.8113°
RAAN
345.5269°
Arg. of periapsis
141.5574°
True anomaly
218.55972°
Mean anomaly
219.1594°
Eccentric anomaly
218.85908°
Mean motion
3.56449 °/min
Orbital period
101 mins
BSTAR
0.00070829
Loading maneuver chart data...
Computing Atmospheric mass density...

Documentation

Showing up to 5 results
|